Theta_e
312 309 312 313 312 312 312 311 310 309 310 311 312 312 311 310 310 310 310 310 311 312 312 314 316 317 317 320 319 316 317 317 318 318 319 320 319 319 318 318 319 319 319 319 317 316 318
309 311 312 313 312 312 312 310 310 310 311 312 312 312 311 310 310 310 310 311 312 313 314 315 318 316 320 319 316 315 317 316 319 319 319 320 320 319 320 320 320 319 319 319 318 318 317
309 312 313 312 312 313 311 310 311 311 312 312 312 311 310 310 310 310 311 312 313 314 315 316 318 317 319 318 316 315 315 316 317 319 320 318 319 320 322 322 320 319 320 320 319 319 320
310 312 313 312 312 312 311 311 311 312 313 312 311 310 310 310 311 312 313 313 314 315 315 318 318 317 318 316 316 315 315 316 317 318 319 317 318 319 321 318 318 319 320 319 319 320 319
310 313 313 312 312 312 311 311 311 313 313 313 312 312 312 312 313 313 314 315 315 316 317 317 320 320 318 316 316 315 314 317 318 318 317 316 318 319 318 320 319 318 316 317 318 318 320
310 313 313 312 313 313 312 312 311 313 314 314 314 314 315 315 315 315 315 315 315 316 315 314 315 318 316 316 315 314 314 315 319 319 320 320 319 320 319 317 316 317 317 318 318 318 319
310 313 313 312 313 313 312 313 312 312 314 315 315 315 315 315 315 315 315 319 319 319 317 317 316 316 316 315 315 316 314 316 318 320 320 319 320 320 319 318 318 317 318 318 317 318 320
310 313 314 313 313 313 312 313 313 312 314 315 315 316 319 322 319 318 321 321 321 319 317 315 315 316 314 315 318 318 317 318 319 319 319 319 320 317 317 317 317 318 319 319 319 318 320
309 312 314 313 313 313 313 313 314 313 313 314 314 318 318 320 320 322 326 325 322 319 318 317 316 317 316 317 318 318 317 317 318 318 319 319 317 315 317 320 320 320 320 320 320 320 320
308 311 313 313 313 313 313 313 314 313 312 313 314 314 315 320 321 319 323 321 322 318 318 317 317 317 317 316 318 317 316 316 317 318 318 317 316 318 320 320 320 321 318 321 321 322 322
307 309 312 313 313 313 313 313 314 314 312 313 314 315 316 317 319 321 321 320 324 321 322 318 318 316 317 318 317 318 316 318 318 317 319 316 318 320 320 319 319 322 320 321 321 323 322
306 307 309 313 313 314 314 314 313 315 313 314 314 319 319 320 320 319 318 323 325 325 320 319 318 318 319 319 318 318 319 318 317 320 319 318 317 319 320 318 318 320 321 321 322 324 327
306 307 308 311 313 314 314 315 313 315 316 315 314 317 318 318 324 318 319 326 323 322 320 319 319 319 319 320 320 319 320 321 321 321 321 319 320 319 319 321 321 322 323 324 328 328 326
307 307 308 310 312 313 314 315 313 317 317 318 317 318 318 318 318 320 323 326 321 321 321 317 318 319 320 319 320 320 321 321 320 320 321 321 323 320 320 320 321 322 323 326 325 324 324
307 307 307 309 311 313 314 314 314 317 318 318 318 318 320 321 321 319 324 327 324 321 319 319 319 320 321 320 320 321 321 321 320 320 322 323 321 320 319 319 320 323 325 321 324 322 326
307 307 307 308 310 312 314 314 316 316 319 318 319 321 322 321 322 321 327 321 320 318 319 319 321 321 322 322 322 321 321 319 320 319 319 321 323 320 318 319 320 321 319 326 324 334 322
308 307 306 307 309 312 313 314 315 318 320 321 319 321 321 323 317 324 327 321 318 317 319 321 322 322 323 322 322 322 321 319 319 319 319 317 321 319 317 320 322 322 323 322 322 324 326
308 308 307 306 308 311 313 314 315 319 320 324 320 323 319 320 324 320 322 319 316 320 320 321 322 322 323 323 323 323 323 321 318 319 319 319 320 318 316 317 318 319 320 319 322 322 322
309 308 307 306 307 311 313 314 316 319 319 321 325 325 317 320 330 326 320 320 320 321 320 321 322 322 321 323 324 322 321 318 318 320 320 319 319 316 316 318 319 320 319 318 317 319 320
309 308 308 306 307 311 312 314 316 319 319 318 324 333 323 320 318 322 322 322 322 319 320 320 320 320 322 323 322 323 322 320 319 319 313 317 319 315 314 313 314 314 315 316 318 322 319
308 309 308 307 308 311 313 313 316 319 317 316 321 325 321 329 323 322 322 321 322 321 320 320 321 321 322 324 322 323 322 320 318 315 319 320 319 318 317 316 316 316 317 316 317 318 320
309 308 309 308 309 312 313 314 316 318 317 318 324 325 319 320 320 322 320 322 321 320 320 321 322 320 319 320 317 321 319 319 318 319 320 319 321 318 319 316 316 317 316 316 316 317 317
309 309 309 308 310 312 313 314 317 317 317 321 316 313 324 313 320 324 322 321 320 321 319 320 321 321 322 319 318 319 319 319 318 318 320 320 321 320 325 315 316 321 316 315 316 316 316
310 309 309 309 311 313 313 314 318 318 317 319 317 316 326 324 321 322 320 320 321 320 322 318 319 320 317 316 316 316 314 315 317 317 317 317 318 316 322 319 325 316 314 314 315 315 314
310 309 310 310 311 313 314 314 318 318 318 316 311 316 321 318 320 319 320 320 319 319 320 320 318 315 316 318 322 320 318 317 315 313 315 316 317 318 320 318 316 315 314 314 314 315 314
310 310 311 311 312 314 314 314 316 317 316 314 311 310 316 314 323 317 320 320 322 323 322 319 315 313 316 320 322 323 321 315 315 315 311 312 313 321 314 320 319 315 313 313 313 316 314
310 311 311 311 313 314 314 314 315 317 317 316 315 313 317 323 315 317 322 321 319 321 323 320 319 318 316 315 317 320 324 314 317 319 317 313 314 317 317 319 317 314 312 311 317 318 313
310 311 312 312 313 314 314 314 314 316 317 316 315 314 317 318 317 317 316 318 317 320 325 319 321 319 315 319 320 317 318 319 316 315 315 318 319 317 315 316 318 311 312 316 315 314 313
310 311 311 312 313 314 314 314 315 314 316 316 319 315 314 319 318 315 317 315 317 316 319 318 320 319 321 320 314 313 318 311 320 320 313 316 315 316 315 317 314 313 312 312 314 314 311
Wind_Speed
12 12 11 12 13 15 16 15 12 10 10 9 10 10 9 9 10 10 12 11 11 8 4 2 2 3 0 5 6 8 6 8 6 5 6 6 8 6 7 12 12 14 9 6 5 5 2
10 10 10 12 13 15 15 10 7 7 7 7 7 8 9 9 11 12 12 12 11 8 5 1 3 6 3 7 2 7 2 5 6 6 6 3 2 8 9 7 3 5 7 5 3 6 4
9 8 10 11 13 14 10 5 4 4 4 4 5 7 8 10 13 13 13 13 11 8 4 4 7 6 5 5 3 6 1 2 4 4 7 5 4 2 6 10 5 8 9 7 5 4 4
8 7 9 11 13 12 6 4 2 1 1 4 6 8 10 13 14 14 14 12 11 6 4 5 6 3 4 1 2 5 2 3 3 4 6 5 9 7 2 7 5 7 5 4 7 1 1
6 6 8 11 13 11 5 3 3 3 4 6 8 10 11 12 13 13 12 11 8 6 4 5 3 2 6 3 2 6 4 2 3 5 6 4 3 4 6 8 7 3 3 2 6 4 5
5 5 7 10 12 10 4 3 4 5 5 8 9 10 11 12 13 12 11 8 7 4 3 6 2 6 2 5 5 6 2 2 2 4 5 1 2 5 4 4 2 3 3 2 2 5 7
3 3 6 9 12 11 4 3 4 5 7 9 11 10 10 10 11 10 8 3 5 5 8 5 6 5 3 2 4 7 3 2 2 3 3 4 2 5 7 7 4 2 1 2 1 3 8
2 2 5 7 11 11 4 3 4 6 8 9 9 7 6 8 10 9 4 1 4 4 9 5 3 2 2 2 6 12 7 1 1 5 3 4 7 6 5 3 0 1 2 1 1 1 5
1 2 4 7 10 11 6 3 4 5 8 8 8 9 8 12 11 4 6 5 5 2 5 5 3 3 3 7 7 10 8 2 7 5 3 2 6 3 1 3 3 0 1 3 5 4 3
2 2 4 6 9 12 8 3 3 5 7 8 7 6 5 8 4 7 4 4 3 2 3 3 2 4 2 1 5 9 8 3 3 8 7 7 3 3 3 4 6 2 2 8 7 6 3
3 2 3 6 9 11 11 5 2 5 7 7 7 5 6 5 10 3 5 4 4 1 3 1 4 3 6 3 1 10 6 4 5 5 4 4 3 2 3 3 4 4 7 5 3 6 4
5 2 2 5 8 12 13 8 3 4 7 8 9 8 9 6 6 7 6 5 1 3 3 4 1 4 6 10 5 4 5 8 1 6 9 6 2 3 4 1 1 4 4 1 1 2 5
5 2 2 5 8 11 14 10 4 5 7 8 9 7 4 5 4 6 5 2 3 3 1 6 5 5 7 5 6 9 12 11 4 3 2 4 3 3 5 5 3 7 4 2 3 4 1
6 3 1 5 8 11 15 13 6 7 8 9 10 9 7 8 6 6 2 3 4 2 2 3 5 7 4 3 5 6 4 8 12 6 3 2 4 7 8 6 6 5 6 3 3 2 1
6 3 1 4 8 11 14 14 8 8 9 12 12 9 5 4 4 4 3 4 3 4 4 7 8 5 5 4 2 3 7 5 8 10 4 3 3 4 6 4 4 2 2 2 0 1 3
6 4 1 3 7 10 12 14 10 6 9 9 5 5 4 2 4 1 2 2 2 1 2 3 4 1 4 4 2 2 2 3 2 7 4 3 1 1 2 3 6 4 3 3 0 3 4
7 4 2 2 6 9 11 13 12 4 7 7 2 4 2 3 3 3 2 3 3 2 1 1 4 4 4 4 4 3 3 3 2 3 4 4 2 3 3 3 5 1 2 1 1 2 3
8 4 2 1 4 7 10 12 13 5 8 7 3 3 2 5 3 1 3 4 2 4 2 3 4 5 4 3 3 3 4 2 1 1 2 3 1 2 2 2 2 1 1 0 2 2 2
9 6 3 1 3 6 8 11 13 7 8 5 2 3 4 1 4 3 4 4 3 3 3 3 3 2 3 4 4 5 4 2 1 1 2 1 0 2 3 5 4 4 3 1 2 0 9
11 7 4 2 1 4 7 10 11 8 4 4 2 3 2 2 1 8 9 6 5 4 4 5 5 5 7 4 4 6 5 3 1 2 3 1 2 3 4 7 4 8 9 7 10 5 7
10 6 4 3 1 3 6 8 10 7 4 3 2 2 2 4 3 8 4 6 10 5 3 1 4 3 5 4 4 4 4 5 3 3 1 2 3 3 8 11 14 13 15 13 16 17 11
11 7 5 3 2 2 6 8 9 6 4 4 2 3 2 3 4 9 1 6 9 6 3 4 7 7 5 5 2 6 5 3 3 4 2 0 1 2 4 7 10 13 16 15 16 16 17
11 9 6 4 3 2 5 7 9 6 3 3 2 2 1 1 3 4 3 7 8 8 4 3 13 10 8 8 6 6 4 4 2 2 3 2 2 0 3 8 14 5 4 2 4 6 8
12 11 8 7 4 3 5 7 9 6 4 5 3 3 3 3 2 3 7 5 11 3 7 7 4 5 4 9 9 6 7 5 1 2 1 4 3 1 2 4 3 3 7 11 14 14 10
13 11 9 9 6 3 4 6 7 8 3 6 6 2 3 3 2 5 8 9 9 7 8 7 5 4 8 2 2 3 1 2 3 6 2 3 3 3 2 3 13 12 3 2 3 15 10
14 12 11 10 8 6 4 5 6 6 8 10 10 6 3 6 4 4 6 8 6 5 4 3 4 3 2 2 2 2 1 1 2 4 4 3 3 2 2 3 5 5 4 3 4 9 6
15 14 13 11 9 7 5 5 5 7 6 4 6 5 2 3 2 3 3 6 4 4 4 4 5 2 2 2 2 2 3 2 3 3 4 3 2 4 6 6 8 8 4 1 4 4 9
16 15 14 13 11 9 6 4 5 5 4 4 7 6 2 3 4 1 2 4 4 4 5 6 5 2 2 2 3 3 2 3 3 1 3 4 6 4 2 4 6 1 4 3 10 14 15
17 16 14 13 13 11 8 5 4 4 5 5 4 8 10 6 3 2 2 2 2 2 4 6 0 4 5 4 3 3 3 1 2 3 4 5 6 3 6 7 9 10 13 12 11 11 5
Wind_Direction
294 304 317 320 326 316 313 301 291 282 270 260 254 251 245 233 216 201 191 176 173 160 157 225 302 171 185 114 57 4 25 26 43 111 103 114 123 118 104 113 111 113 118 119 138 151 103
299 310 321 329 327 324 317 307 298 279 266 254 242 231 224 211 198 188 173 167 166 142 167 193 185 138 226 111 354 347 335 9 46 74 79 83 109 118 113 113 75 106 113 126 150 143 101
300 315 325 336 332 331 326 322 308 291 264 231 213 209 195 185 180 170 162 169 144 161 160 200 153 137 119 89 34 355 238 47 34 41 85 68 141 256 134 115 97 139 139 130 83 136 57
301 320 333 343 339 341 347 351 358 19 189 164 161 159 164 164 163 160 165 150 158 153 178 139 142 136 97 13 312 359 68 105 50 75 87 89 93 93 42 110 136 168 208 205 78 255 85
302 324 343 349 347 353 3 10 65 93 130 140 141 152 153 155 156 158 150 157 154 161 153 144 114 240 121 334 358 1 30 120 100 89 74 95 74 88 168 172 158 178 122 72 147 42 331
302 334 351 355 354 359 9 37 89 103 127 137 139 142 148 151 153 153 159 152 159 127 105 92 108 172 106 44 357 347 37 68 166 155 150 128 112 140 108 233 194 156 182 155 323 47 340
297 345 359 1 3 6 34 71 93 108 120 126 128 136 148 156 161 159 146 151 183 136 64 40 82 72 73 10 36 43 8 172 145 112 134 40 148 79 64 50 62 85 285 307 47 86 322
282 4 0 14 16 15 30 77 109 119 126 128 130 136 148 155 155 151 156 178 46 107 95 45 68 86 27 359 78 39 11 169 184 121 145 153 88 83 82 79 323 269 287 57 62 114 298
229 38 5 16 24 24 34 71 105 138 137 133 130 133 98 135 136 130 120 103 120 120 102 64 24 28 22 45 47 12 2 80 82 108 143 104 88 156 229 77 329 101 339 11 304 295 208
191 54 19 27 26 28 34 61 107 144 142 137 143 151 141 140 120 127 79 114 129 148 131 64 63 56 11 65 67 18 11 355 85 109 90 77 89 129 120 72 343 276 40 309 281 256 224
184 88 23 30 26 27 32 38 110 140 152 149 145 136 146 184 142 107 140 121 123 235 155 112 79 25 45 76 19 32 25 88 88 106 247 91 115 77 66 28 338 26 318 316 289 247 249
189 124 54 39 30 28 25 29 117 145 155 153 152 136 126 121 92 125 129 125 173 233 130 143 164 127 109 60 56 51 53 60 65 77 77 99 98 28 20 320 281 322 265 219 190 202 229
196 147 46 39 33 30 28 30 124 143 142 149 158 160 143 125 109 133 132 206 195 256 146 143 134 117 94 56 63 53 64 57 43 191 114 151 75 86 0 304 183 335 293 241 219 204 294
196 162 42 34 36 32 34 39 114 137 135 141 144 148 108 107 122 134 158 187 224 72 173 111 129 100 84 20 59 49 85 68 43 15 86 5 159 10 3 10 338 4 343 354 293 287 303
192 175 89 34 37 32 37 43 85 132 131 133 131 116 87 56 119 138 211 205 155 168 132 148 137 138 109 86 85 93 56 56 29 10 36 350 99 96 47 17 302 40 28 3 204 230 260
190 176 132 42 37 34 35 43 59 136 151 146 130 111 75 62 125 171 207 105 120 117 132 173 130 327 133 116 128 103 76 31 62 24 331 51 213 65 82 250 69 354 101 241 92 298 281
180 191 160 55 38 35 32 38 46 118 160 164 124 146 32 120 116 197 182 112 128 93 319 32 116 120 110 121 104 96 91 110 43 73 42 16 308 113 227 13 340 195 193 50 13 318 298
180 181 181 48 37 34 33 34 36 83 155 159 156 145 353 153 145 58 131 116 99 119 97 96 88 92 113 103 96 108 139 82 25 328 32 32 334 281 8 116 359 310 119 242 262 205 234
185 184 186 144 38 31 35 35 34 70 159 147 111 94 22 205 152 125 126 105 73 142 62 106 104 72 118 122 121 124 121 77 29 57 28 118 228 298 171 164 192 238 189 150 300 332 243
190 187 185 170 68 30 33 35 35 56 106 124 160 123 108 78 17 149 144 139 120 61 78 82 109 118 127 108 71 139 135 145 39 67 43 254 221 256 284 310 295 259 258 257 228 234 263
191 182 177 182 123 31 34 33 29 43 60 117 11 89 10 152 146 140 128 150 142 133 92 119 112 164 142 119 112 129 144 151 141 150 152 272 261 260 275 283 282 275 270 262 242 245 257
190 191 189 175 142 44 35 30 27 34 62 83 138 153 105 80 127 142 91 151 155 126 163 129 146 123 132 129 154 165 154 208 208 164 174 117 285 343 287 299 289 289 271 261 261 264 260
189 190 187 189 163 63 40 30 27 30 54 99 118 93 93 351 133 168 133 145 153 135 61 59 135 118 96 105 84 62 60 61 78 217 186 227 187 204 278 336 313 276 320 184 209 263 279
191 190 185 179 165 97 49 38 30 38 70 110 121 119 94 128 185 118 144 127 143 90 126 122 122 115 94 115 105 88 69 64 107 66 347 134 108 51 299 296 281 61 293 278 291 298 299
189 188 184 176 166 125 73 51 40 45 84 118 123 136 118 107 114 118 128 122 108 93 98 114 52 55 139 130 89 20 95 53 79 52 86 233 141 139 259 258 294 297 59 19 301 300 315
188 185 183 179 168 148 106 74 59 68 85 102 87 94 97 118 217 129 128 161 137 126 121 84 82 73 85 79 86 145 241 270 187 151 63 90 101 235 173 257 277 330 19 357 285 287 72
188 184 181 180 175 160 135 101 84 84 95 115 78 85 91 103 149 181 143 166 133 126 114 135 155 127 347 90 109 161 226 334 232 201 191 135 152 216 231 255 272 296 3 265 271 341 320
192 186 182 179 174 167 152 120 98 98 105 123 86 69 71 86 133 177 148 144 140 175 150 139 146 136 96 109 166 199 214 203 226 255 206 211 170 198 185 262 275 110 196 314 309 299 301
194 189 187 183 178 172 162 143 107 94 116 120 97 89 83 77 92 136 83 62 27 119 132 175 25 153 162 116 190 132 189 185 218 250 190 266 214 261 218 248 289 288 278 299 322 320 342